Location: *
(51.1248°S, 108.4023°W)
Time: 22:26:13
(UTC+00:00)

Cosmos 2278 Rocket - Pass Details

Date: 01 November 2021
Orbit: 841 x 845 km, 71.0° (Epoch: 30 November)

Event Time Altitude Azimuth Distance (km) Brightness Sun altitude
Rises 07:58:45 0° 262° (W) 3,423 5.3 -23.0°
Reaches altitude 10° 08:02:27 10° 238° (WSW) 2,493 4.8 -22.8°
Maximum altitude 08:05:33 15° 205° (SSW) 2,180 4.9 -22.7°
Drops below altitude 10° 08:08:41 10° 171° (S) 2,500 5.7 -22.5°
Sets 08:12:24 0° 147° (SSE) 3,440 6.7 -22.3°
